Terminal Aerodrome Forecast
Issued by NWS St Louis, MO

Home | Current Version | Previous Version | Text Only | Print | Product List | Glossary On
Versions: 1 2 3 4 5 6 7 8 9 10 11 12 13 14 15 16 17 18 19 20 21
000
FTUS43 KLSX 212300
TAFSTL
TAF
KSTL 212320Z 2200/2306 32014G24KT P6SM FEW060
     FM220100 34005KT P6SM SKC
     FM221400 01005KT P6SM SKC
     FM230500 09005KT P6SM SKC=

USA.gov is the U.S. government's official web portal to all federal, state and local government web resources and services.